Regional Weather Roundup
Issued by NWS

Home | Current Version | Previous Version | Graphics & Text | Print | Product List | Glossary On
Versions: 1 2 3 4 5 6 7 8 9 10 11 12 13 14 15 16 17 18 19 20 21 22 23 24 25 26 27 28 29 30 31 32 33 34 35 36 37 38 39 40 41 42 43 44 45 46 47 48 49 50
000
ASUS43 KDMX 261406
RWRIA

WEATHER ROUNDUP FOR IOWA
NATIONAL WEATHER SERVICE DES MOINES IA
900 AM CDT FRI MAY 26 2017

NOTE: "FAIR" INDICATES FEW OR NO CLOUDS BELOW 12,000 FEET WITH NO
SIGNIFICANT WEATHER AND/OR OBSTRUCTIONS TO VISIBILITY.

* - THESE STATIONS ARE NOT NWS STATIONS...THUS NOT UNDER NWS
QUALITY CONTROL.  THEY ALSO DO NOT REPORT WEATHER SUCH
AS PRECIPITATION OR FOG.

IAZ001>003-012>014-020>022-031>034-043>046-261500-
   NORTHWEST IOWA

CITY           SKY/WX    TMP DP  RH WIND       PRES   REMARKS
CARROLL *      CLOUDY    61  57  88 SE3       29.74R
CHEROKEE *     CLOUDY    62  57  82 CALM      29.75R
DENISON *      CLOUDY    61  57  88 CALM      29.76R
LE MARS *      CLOUDY    63  54  72 NW12      29.78R
ORANGE CITY *  CLOUDY    61  55  82 NW13G18   29.76R
SHELDON *      PTSUNNY   63  54  72 NW12      29.74R
SIOUX CITY     PTSUNNY   62  51  67 NW23      29.76R
SPENCER        CLOUDY    63  56  78 SW3       29.75R
STORM LAKE *   MOSUNNY   61  54  77 S6        29.75R
$$

IAZ055>058-069>071-079>083-090>094-261500-
   SOUTHWEST IOWA

CITY           SKY/WX    TMP DP  RH WIND       PRES   REMARKS
ATLANTIC *     CLOUDY    63  57  82 CALM      29.73R
AUDUBON *      PTSUNNY   63  57  82 SE5       29.74S
CLARINDA *     SUNNY     66  59  77 CALM      29.75R
COUNCIL BLFS * CLOUDY    64  63  94 NW7       29.74R
CRESTON *      CLOUDY    61  57  88 CALM      29.75R
HARLAN  *      PTSUNNY   63  59  88 CALM      29.78R
LAMONI         MOSUNNY   64  60  87 N6        29.72R
RED OAK *      CLOUDY    66  59  77 NE5       29.72R
SHENANDOAH *   MOSUNNY   66  59  77 SW3       29.73R
$$

IAZ047>049-059>061-072>074-084-261500-
   CENTRAL IOWA

CITY           SKY/WX    TMP DP  RH WIND       PRES   REMARKS
AMES           CLOUDY    61  55  81 CALM      29.74R
ANKENY *       CLOUDY    59  55  88 CALM      29.75R
BOONE *        CLOUDY    61  57  88 S3        29.74R
CHARITON *     CLOUDY    59  55  88 NE5       29.73S
DES MOINES     LGT RAIN  60  56  86 CALM      29.74R
GRINNELL*      RAIN      58  55  87 SE6       29.76R
KNOXVILLE *    RAIN      57  55  94 VRB5      29.74R
MARSHALLTOWN   LGT RAIN  61  56  83 SE6       29.74R
NEWTON *       CLOUDY    59  55  88 CALM      29.74R FOG
PELLA *        LGT RAIN  57  56  94 SE3       29.77R
PERRY *        CLOUDY    61  56  83 S3        29.74S
$$

IAZ004>006-015-016-023>025-035-036-261500-
   NORTH CENTRAL IOWA

CITY           SKY/WX    TMP DP  RH WIND       PRES   REMARKS
ALGONA *       CLOUDY    59  54  82 S8        29.75S
CLARION *      CLOUDY    59  57  94 SE8       29.75R
ESTHERVILLE    CLOUDY    59  55  87 S8        29.74R
FORT DODGE *   CLOUDY    59  54  82 CALM      29.76R
MASON CITY     CLOUDY    60  53  77 S9        29.77R
FOREST CITY *  CLOUDY    59  48  67 S6        29.76R
WEBSTER CITY * LGT RAIN  61  54  77 CALM      29.74R
$$

IAZ007>011-017>019-026>030-037>042-050>054-066-261500-
   NORTHEAST IOWA

CITY           SKY/WX    TMP DP  RH WIND       PRES   REMARKS
CEDAR RAPIDS   LGT RAIN  62  56  80 SE8       29.74R
CHARLES CITY * CLOUDY    61  57  88 SE5       29.77R
CLINTON *      PTSUNNY   66  57  72 SE15      29.77F
DUBUQUE        PTSUNNY   62  55  77 SE13      29.78S
MONTICELLO *   CLOUDY    64  55  72 SE10      29.75R
OELWEIN *      CLOUDY    63  55  77 SE12      29.75S
WATERLOO       CLOUDY    62  54  74 E7        29.73S
$$

IAZ064-065-067-068-078-261500-
   EAST CENTRAL IOWA

CITY           SKY/WX    TMP DP  RH WIND       PRES   REMARKS
DAVENPORT      CLOUDY    65  54  67 E17       29.75F
IOWA CITY      CLOUDY    65  55  70 SE7       29.75R
MT. PLEASANT * CLOUDY    63  55  75 SE9       29.73R
MUSCATINE *    CLOUDY    66  54  63 SE9       29.74R
QUAD CITIES    CLOUDY    67  55  65 E13       29.73F
$$

IAZ062-063-075>077-085>089-095>099-261500-
   SOUTHEAST IOWA

CITY           SKY/WX    TMP DP  RH WIND       PRES   REMARKS
BURLINGTON     PTSUNNY   64  58  80 NW3       29.73R
FAIRFIELD *    CLOUDY    61  55  82 E7        29.72R
FORT MADISON * MOSUNNY   64  57  77 SW7       29.75R
KEOKUK *       CLOUDY    63  59  88 W5        29.73R
OSKALOOSA *    HVY RAIN  59  56  87 SW3       29.76R
CENTERVILLE *    N/A     63  61  94 CALM      29.74R
OTTUMWA        LGT RAIN  61  58  90 W7        29.74R
WASHINGTON *   CLOUDY    64  55  72 SE9       29.73S
$$

ABBREVIATIONS USED IN REMARKS
   TC - TEMPERATURES IN CELSIUS
  WCI - WIND CHILL INDEX
   HX - HEAT INDEX
  VSB - VISIBILITY
$$





USA.gov is the U.S. government's official web portal to all federal, state and local government web resources and services.